SCP
0 0 0 0 0 0 0 0 0 0 0 0 0 0 0 0 0 0 0 0 0 0 0 0 0 0 0 0 0 0 0 0 0 0 0 0 0 0
0 0 0 0 0 0 0 0 0 0 0 0 0 0 0 0 0 0 0 0 0 0 0 0 0 0 0 0 0 0 0 0 0 0 0 0 0 0
0 0 0 0 0 0 0 0 0 0 0 0 0 0 0 0 0 0 0 0 0 0 0 0 0 0 0 0 0 0 0 0 0 0 0 0 0 0
0 0 0 0 0 0 0 0 0 0 0 0 0 0 0 0 0 0 0 0 0 0 0 0 0 0 0 0 0 0 0 0 0 0 0 0 0 0
0 0 0 0 0 0 0 0 0 0 0 0 0 0 0 0 0 0 0 0 0 0 0 0 0 0 0 0 0 0 0 0 0 0 0 0 0 0
0 0 0 0 0 0 0 0 0 0 0 0 0 0 0 0 0 0 0 0 0 0 0 0 0 0 0 0 0 0 0 0 0 0 0 0 0 0
0 0 0 0 0 0 0 0 0 0 0 0 0 0 0 0 0 0 0 0 0 0 0 0 0 0 0 0 0 0 0 0 0 0 0 0 0 0
1 1 1 0 0 0 0 0 0 0 0 0 0 0 0 0 0 0 0 0 0 0 0 0 0 0 0 0 0 0 0 0 0 0 0 0 0 0
1 1 1 1 0 0 0 0 0 0 0 0 0 0 0 0 0 0 0 0 0 0 0 0 0 0 0 0 0 0 0 0 0 0 0 0 0 0
1 1 1 1 1 0 0 0 0 0 0 0 0 0 0 0 0 0 0 0 0 0 0 0 0 0 0 0 0 0 0 0 0 0 0 0 0 0
1 1 1 1 0 0 0 0 0 0 0 0 0 0 0 0 0 0 0 0 0 0 0 0 0 0 0 0 0 0 0 0 0 0 0 0 0 0
1 1 1 0 0 0 0 0 0 0 0 0 0 0 0 0 0 0 0 0 0 0 0 0 0 0 0 0 0 0 0 0 0 0 0 0 0 0
1 1 1 0 0 0 0 0 0 0 0 0 0 0 0 0 0 0 0 0 0 0 0 0 0 0 0 0 0 0 0 0 0 0 0 0 0 0
1 1 0 0 0 0 0 0 0 0 0 0 0 0 0 0 0 0 0 0 0 0 0 0 0 0 0 0 0 0 0 0 0 0 0 0 0 0
1 0 0 0 0 0 0 0 0 0 0 0 0 0 0 0 1 0 0 0 0 0 0 0 0 0 0 0 0 0 0 0 0 0 0 0 0 0
0 0 0 0 0 0 0 0 0 0 0 0 0 0 0 0 1 1 0 0 0 0 0 0 0 0 0 0 0 0 0 0 0 0 0 0 0 0
0 0 0 0 0 0 0 0 0 0 0 0 0 0 0 0 0 0 0 0 0 0 0 0 0 0 0 0 0 0 0 0 0 0 0 0 0 0
0 0 0 0 0 0 0 0 0 0 0 0 0 0 0 0 0 0 0 0 0 0 0 0 0 0 0 0 0 0 0 0 0 0 0 0 0 0
0 0 0 0 0 0 0 0 0 0 0 0 0 0 0 0 0 0 0 0 0 0 0 0 0 0 0 0 0 0 0 0 0 0 0 0 0 0
0 0 0 0 0 0 0 0 0 0 0 0 0 0 0 0 0 0 0 0 0 0 0 0 0 0 0 0 0 0 0 0 0 0 0 0 0 0
0 0 0 0 0 0 0 0 0 0 0 0 0 0 0 0 0 0 0 0 0 0 0 0 0 0 0 0 0 0 0 0 0 0 0 0 0 0
0 0 0 0 0 0 0 0 0 0 0 0 0 0 0 0 0 0 0 0 0 0 0 0 0 0 0 0 0 0 0 0 0 0 0 0 0 0
0 0 0 0 0 0 0 0 0 0 0 0 0 0 0 0 0 0 0 0 0 0 0 0 0 0 0 0 0 0 0 0 0 0 0 0 0 0
Wind_Speed
1 2 2 1 2 2 3 3 4 4 2 2 2 1 1 1 1 2 1 4 3 2 2 1 1 1 1 2 2 1 1 2 2 3 3 3 4 5
1 1 2 2 2 2 2 3 3 4 3 1 1 1 0 1 2 2 1 6 4 3 3 2 2 1 2 2 2 2 2 2 3 3 4 4 4 5
2 1 2 3 3 2 2 3 3 3 3 2 1 1 1 2 1 2 2 2 3 4 3 3 2 2 2 2 2 2 2 3 4 4 4 5 5 5
2 2 2 2 2 3 2 3 3 3 4 3 2 2 2 2 1 2 1 1 1 5 4 3 3 3 3 3 3 3 3 4 4 4 4 5 5 4
2 2 2 2 2 2 3 3 3 3 3 3 3 1 2 2 2 2 1 1 1 5 6 5 4 4 4 3 3 3 3 4 4 4 4 4 4 4
3 3 3 3 2 2 3 3 3 3 3 3 3 3 3 3 3 3 2 2 2 2 2 3 5 5 5 5 4 5 4 4 4 4 4 4 4 4
3 3 2 1 2 2 3 2 2 3 3 4 3 3 3 3 3 3 2 2 2 2 2 2 4 3 5 6 6 5 5 5 4 4 5 5 4 4
3 3 3 3 2 2 2 3 3 4 4 4 4 4 3 4 2 3 3 3 2 2 2 2 2 2 2 3 6 7 5 5 5 5 5 4 5 5
3 4 4 2 4 3 4 5 4 4 4 5 5 4 4 4 4 4 4 4 2 1 2 3 3 2 2 4 9 8 6 6 5 5 5 5 5 5
4 4 4 4 3 3 4 4 5 5 5 5 5 5 4 3 4 5 4 4 4 4 4 4 3 3 3 3 9 9 8 7 7 6 6 6 6 6
5 5 5 5 2 3 5 5 5 4 4 3 3 3 2 3 4 5 5 5 5 4 5 4 4 3 3 4 7 11 9 9 8 7 7 6 6 7
4 5 5 4 3 4 6 6 6 5 4 4 4 5 6 6 7 7 6 6 5 4 4 5 5 4 3 4 4 6 7 8 9 9 8 8 7 6
4 4 3 5 6 7 7 6 5 5 5 5 5 5 5 5 6 7 6 6 6 5 3 5 5 5 4 3 4 5 5 5 7 7 9 10 9 7
5 4 2 5 7 8 7 4 4 5 5 5 5 5 4 5 5 5 6 6 5 6 4 4 4 5 5 4 4 4 5 5 5 5 5 9 10 9
5 3 3 5 6 7 7 7 7 6 5 6 6 5 5 4 4 4 5 5 6 6 6 6 6 5 6 6 5 5 5 5 6 6 6 6 6 7
5 4 6 7 7 6 5 6 6 5 5 6 5 5 4 4 5 5 5 5 5 6 6 7 7 7 7 6 5 6 5 5 6 6 6 6 6 6
3 4 4 4 4 4 4 4 5 5 5 6 5 5 5 5 4 4 4 5 6 6 5 6 7 6 7 6 6 6 5 5 5 5 6 6 6 6
5 5 5 5 5 4 4 4 4 4 5 5 5 5 5 5 5 5 5 6 6 6 6 5 5 5 5 6 7 8 6 6 5 6 6 6 6 6
6 6 5 5 5 5 4 5 5 4 4 5 5 5 5 5 5 5 5 5 6 6 5 5 5 6 7 7 7 8 7 6 6 6 7 6 6 6
6 6 5 5 5 5 5 5 5 5 5 5 5 5 5 5 6 6 6 6 6 6 5 5 6 6 7 7 5 5 8 7 7 7 7 6 5 3
6 5 5 5 5 5 4 5 5 5 5 5 5 6 5 6 6 6 6 6 7 7 7 7 6 7 6 5 6 5 5 7 5 5 6 7 7 7
6 6 5 5 5 5 5 5 6 5 5 6 5 5 5 6 6 7 6 6 6 7 7 6 5 6 6 7 7 7 6 5 6 6 6 6 6 7
6 5 5 5 5 5 5 6 7 5 5 5 5 5 6 6 6 6 7 7 7 7 6 6 5 5 6 7 7 6 7 7 6 6 7 7 7 6
Wind_Direction
250 226 266 282 270 272 268 266 273 275 260 218 228 192 222 222 139 204 183 122 139 140 127 117 109 107 112 127 124 122 121 143 160 167 169 173 179 183
289 310 291 288 287 269 277 276 269 276 282 266 241 232 243 214 153 204 157 131 136 136 132 137 131 122 120 127 129 132 137 142 146 147 145 149 150 147
270 260 273 298 296 289 279 273 267 260 260 271 239 163 205 247 171 211 193 196 136 134 143 151 150 143 138 135 130 129 133 137 132 132 133 133 131 131
267 277 278 274 281 288 288 279 270 264 252 256 237 204 201 209 186 223 216 196 139 130 143 155 158 155 151 148 145 143 139 135 132 137 141 140 139 141
255 254 265 274 275 291 288 277 262 245 240 237 230 204 206 197 196 205 191 231 211 147 157 158 155 157 158 159 157 160 157 147 143 142 139 139 139 139
253 256 261 265 266 272 266 270 273 261 238 234 228 211 205 193 211 212 196 190 237 199 152 158 155 162 162 162 159 158 155 151 149 148 146 144 143 140
252 254 260 288 324 301 297 293 274 262 246 233 229 226 213 203 215 219 217 203 200 225 199 187 177 181 168 168 166 154 150 153 156 158 156 156 154 147
252 249 233 210 202 223 291 318 310 276 275 265 247 239 231 227 225 231 224 226 219 193 224 217 203 193 179 159 137 148 158 160 163 163 161 160 162 161
254 252 251 218 215 218 208 220 239 257 269 273 272 266 243 224 227 233 235 251 258 206 215 231 212 210 200 138 140 157 168 172 173 172 173 173 172 173
248 249 252 252 240 246 239 234 236 226 230 243 260 268 271 253 231 240 233 231 233 218 213 238 218 214 201 167 153 166 173 179 182 183 182 183 182 181
245 244 246 244 218 246 244 241 245 242 224 231 265 272 287 264 251 240 228 227 228 213 203 232 227 216 212 196 168 173 179 184 188 190 190 191 191 191
237 231 226 239 210 218 240 242 244 248 252 229 220 223 228 223 222 233 239 239 238 232 199 218 221 214 220 208 194 179 185 186 193 194 194 196 204 213
250 244 221 184 209 221 241 245 248 258 249 243 234 228 224 222 218 223 238 250 251 247 208 211 229 224 228 214 202 199 197 191 189 192 197 200 207 225
259 259 241 191 216 226 235 240 241 247 245 245 242 238 236 231 226 227 233 248 266 268 254 240 244 237 235 225 218 206 203 204 203 204 199 190 203 217
264 274 256 218 222 225 222 224 226 235 241 243 244 242 242 241 236 227 226 233 243 247 235 233 244 245 243 244 232 212 206 207 207 208 204 201 202 203
254 239 218 219 231 242 220 215 232 240 245 250 253 250 245 233 233 233 230 222 229 229 224 226 230 239 244 245 240 226 214 209 206 213 209 208 208 211
266 253 245 232 228 233 233 232 235 231 236 246 251 252 249 244 243 238 237 237 238 238 226 214 215 223 239 249 241 233 224 220 214 206 212 219 213 213
245 245 246 246 245 243 245 243 240 244 247 244 243 246 247 247 245 241 237 239 242 242 237 221 209 209 223 230 241 240 230 224 216 207 218 223 222 215
232 244 248 250 253 253 251 253 252 248 249 246 244 246 248 250 248 245 241 243 246 247 244 231 220 223 231 235 220 222 235 229 221 214 221 228 231 220
240 249 252 251 250 253 255 258 260 255 244 244 245 246 246 248 249 248 244 243 244 245 241 233 227 231 238 247 245 219 219 233 229 225 222 226 229 211
245 248 254 257 257 256 256 258 258 255 253 253 251 252 251 251 252 251 249 240 244 243 239 234 226 229 243 248 247 236 213 212 237 241 236 232 228 223
247 245 247 253 256 256 250 248 251 249 247 248 254 256 256 256 257 258 258 254 246 248 248 245 221 219 230 237 244 242 232 213 213 226 243 251 244 239
251 249 247 245 246 248 251 252 254 254 252 254 254 255 257 257 257 256 253 251 252 253 253 248 237 230 234 236 242 246 236 227 223 216 224 219 224 235